SL-16 DEB

Satellite information

Favourite Embed

Satellite Type and Status

DEBRISIN ORBIT

Key statistics

Satellite SL-16 DEB at a glance.

Uptime

11985

Days in orbit

Revolutions

≈ 14.5

Per day

Orbit

LEO

Low Earth Orbit

Inclination

71.1

Latest

Satellite identification and parameters

Extended collection of information and parameters for SL-16 DEB.

Object identification

Identified? True

Debris? True

Object name: SL-16 DEB

International designator: 1992-093CL

Object number (NORAD): 22395

Object ID (CCSDS): 22395

Country: COMMONWEALTH OF INDEPENDENT STATES (CIS)

Current information (Y/N): Y

RCS size: SMALL

Orbital parameters

Period: 99.088 minutes

Inclination: 71.1387 deg

SMA: 7093.197 km

Apoapsis: 749.336 km

Periapsis: 680.788 km

RAAN: 303.99 deg

Eccentricy: 0.00483194

Argument of periapsis: 72.9327 deg

Mean anomaly: 356.1355 deg

Mean motion: 14.53248037 rev/day

Mean motion (dot): 0.00015286 rev/day2

B* drag term: 0.0036306876 1/REarth

Two-line elements (TLE)

Creation date: Oct. 17, 2025, 2:15 a.m.

Reference frame: TEME

Reference center: EARTH

Epoch: Oct. 16, 2025, 9:24 p.m. UTC

TLE line 0: 0 SL-16 DEB

TLE line 1: 1 22395U 92093CL 25289.89228793 .00015286 00000-0 36307-2 0 9991

TLE line 2: 2 22395 71.1387 303.9900 0048319 72.9327 356.1355 14.53248037685878

Live tracking on map

Real-time ground track for satellite SL-16 DEB.

In-orbit conjunctions

A list of the most updated potential collisions computed for object SL-16 DEB.

Target Orbit TCA Probability of collision Miss distance Type
ORBCOMM FM 28 LEO 2025-08-03 21:46:15 0.001047175 251.0 (m) PAYLOAD

Associated space launch

Second generation ELING satellite

SL-16 DEB was lifted into orbit during the mission ‘Zenit-2 | Tselina-2 12’, on board a Zenit-2 space rocket.

The launch took place on Dec. 25, 1992, 5:56 a.m. from 45/1.

For more information about the launch, click the button.

Launch to space Zenit-2 | Tselina-2 12
Zenit-2 | Tselina-2 12

Agency: N/A

Status: Launch Successful

Launch date: Dec. 25, 1992, 5:56 a.m. UTC

Rocket: Zenit-2

Launch pad: 45/1

Location: Baikonur Cosmodrome, Republic of Kazakhstan

...

Latest news about this satellite

There are no fresh news available about this satellite. Check back as we update our databases every day.


Newsletter sign-up

Weekly statistics, charts and insights to help you stay on top of the space industry.